Tracking 28888 objects as of 22-May-2024
HD Live streaming from Space Station
objects crossing your sky now

FLOCK 4S 5

Track FLOCK 4S 5 now!
10-day predictions
FLOCK 4S 5 is classified as:


NORAD ID: 47515
Int'l Code: 2021-006DF
Perigee: 425.1 km
Apogee: 430.7 km
Inclination: 97.3 °
Period: 93.0 minutes
Semi major axis: 6798 km
RCS: Unknown
Launch date: January 24, 2021
Source: United States (US)
Launch site: AIR FORCE EASTERN TEST RANGE (AFETR)
Your satellite tracking list
Your tracking list is empty




NASA's NSSDC Master Catalog

Two Line Element Set (TLE):
1 47515U 21006DF  24142.68177894  .00043930  00000-0  82073-3 0  9996
2 47515  97.3291 206.2599 0004126 291.6116  68.4695 15.48622481184885
Source of the keplerian elements: AFSPC